BAW9G EGLL-MYNN

Flight info

Callsign BAW9G
Flight time N/A
Altitude 36000
Route CPT L9 BUCGO DCT FELCA DCT OFSOX DCT BANBA DCT DINIM/M084F370 NATF ALLRY/N0495F380 DCT YQX T601 SASUG DCT ELERI/M084F400 DCT 39N067W 36N069W DCT ALOBI DCT ILIDO/N0482F400 DCT OHBEE
Aircraft B772/H-SDE2E3FGHIJ5LORVWXY/LB1D1

Departure

Time N/A
Airport London Heathrow Airport (EGLL)

Arrival

Time 2026-05-04 20:50
Airport Lynden Pindling International Airport (MYNN)
Time Latitude Longitude Altitude Speed Heading
2026-05-04 20:31 25.72471 -76.53629 20725 ft 341 kts 224°
2026-05-04 20:32 25.70633 -76.55335 19451 ft 338 kts 224°
2026-05-04 20:32 25.69444 -76.56438 18646 ft 336 kts 224°
2026-05-04 20:32 25.67084 -76.58629 16890 ft 332 kts 224°
2026-05-04 20:32 25.65324 -76.60261 15601 ft 328 kts 224°
2026-05-04 20:33 25.63635 -76.61821 15228 ft 302 kts 224°
2026-05-04 20:33 25.62053 -76.63283 15038 ft 295 kts 225°
2026-05-04 20:33 25.60994 -76.64268 14993 ft 293 kts 225°
2026-05-04 20:33 25.59434 -76.65716 14985 ft 292 kts 225°
2026-05-04 20:34 25.57876 -76.67162 14981 ft 292 kts 225°
2026-05-04 20:34 25.56316 -76.68609 14976 ft 293 kts 225°
2026-05-04 20:34 25.54836 -76.69981 15441 ft 293 kts 223°
2026-05-04 20:34 25.53276 -76.71429 14919 ft 292 kts 224°
2026-05-04 20:35 25.51694 -76.72891 14971 ft 298 kts 224°
2026-05-04 20:35 25.50108 -76.74355 14972 ft 296 kts 224°
2026-05-04 20:35 25.48528 -76.75815 14972 ft 294 kts 225°
2026-05-04 20:35 25.46966 -76.77257 14973 ft 292 kts 225°
2026-05-04 20:36 25.45408 -76.78695 14974 ft 291 kts 225°
2026-05-04 20:36 25.43865 -76.80121 14975 ft 289 kts 225°
2026-05-04 20:36 25.42329 -76.81576 14578 ft 294 kts 226°
2026-05-04 20:36 25.40792 -76.83052 14270 ft 291 kts 226°
2026-05-04 20:37 25.39275 -76.84511 13942 ft 288 kts 226°
2026-05-04 20:37 25.37770 -76.85958 13595 ft 286 kts 226°
2026-05-04 20:37 25.36279 -76.87390 13252 ft 283 kts 226°
2026-05-04 20:37 25.34795 -76.88816 12885 ft 283 kts 225°
2026-05-04 20:38 25.33304 -76.90248 12579 ft 285 kts 225°
2026-05-04 20:38 25.31802 -76.91690 12243 ft 286 kts 225°
2026-05-04 20:38 25.30306 -76.93123 11907 ft 284 kts 225°
2026-05-04 20:38 25.28820 -76.94545 11576 ft 282 kts 225°
2026-05-04 20:39 25.27337 -76.95965 11260 ft 282 kts 225°
2026-05-04 20:39 25.25853 -76.97386 10939 ft 284 kts 225°
2026-05-04 20:39 25.24364 -76.98810 10601 ft 282 kts 224°
2026-05-04 20:39 25.22883 -77.00225 10293 ft 281 kts 224°
2026-05-04 20:40 25.21409 -77.01634 9966 ft 280 kts 224°
2026-05-04 20:40 25.19934 -77.03043 9554 ft 281 kts 224°
2026-05-04 20:40 25.18476 -77.04436 8997 ft 277 kts 224°
2026-05-04 20:40 25.17057 -77.05788 8618 ft 263 kts 224°
2026-05-04 20:41 25.15701 -77.07080 8283 ft 254 kts 224°
2026-05-04 20:41 25.14356 -77.08365 7992 ft 259 kts 224°
2026-05-04 20:41 25.12993 -77.09667 7683 ft 259 kts 223°
2026-05-04 20:41 25.11642 -77.10954 7359 ft 254 kts 223°
2026-05-04 20:42 25.10306 -77.12229 7056 ft 255 kts 223°
2026-05-04 20:42 25.08959 -77.13513 6757 ft 255 kts 223°
2026-05-04 20:42 25.07628 -77.14781 6436 ft 250 kts 223°
2026-05-04 20:42 25.06317 -77.16030 6118 ft 250 kts 223°
2026-05-04 20:43 25.04991 -77.17294 5789 ft 254 kts 223°
2026-05-04 20:43 25.03656 -77.18565 5473 ft 253 kts 223°
2026-05-04 20:43 25.02325 -77.19831 5151 ft 252 kts 223°
2026-05-04 20:43 25.00999 -77.21093 4835 ft 251 kts 223°
2026-05-04 20:44 24.99698 -77.22331 4514 ft 250 kts 223°
2026-05-04 20:44 24.98386 -77.23579 4212 ft 249 kts 223°
2026-05-04 20:44 24.97074 -77.24827 3903 ft 249 kts 223°
2026-05-04 20:44 24.95759 -77.26076 3613 ft 250 kts 223°
2026-05-04 20:45 24.94456 -77.27313 3315 ft 242 kts 223°
2026-05-04 20:45 24.93211 -77.28492 3005 ft 230 kts 223°
2026-05-04 20:45 24.92153 -77.29742 2708 ft 217 kts 244°
2026-05-04 20:45 24.91861 -77.31305 2497 ft 206 kts 275°
2026-05-04 20:46 24.92172 -77.32759 2352 ft 190 kts 291°
2026-05-04 20:46 24.92869 -77.33926 2192 ft 178 kts 314°
2026-05-04 20:46 24.93752 -77.34857 2138 ft 172 kts 312°
2026-05-04 20:46 24.94596 -77.35795 2029 ft 172 kts 313°
2026-05-04 20:47 24.95433 -77.36723 1877 ft 169 kts 313°
2026-05-04 20:47 24.96262 -77.37642 1788 ft 170 kts 313°
2026-05-04 20:47 24.97091 -77.38558 1709 ft 167 kts 312°
2026-05-04 20:47 24.97895 -77.39451 1668 ft 170 kts 312°
2026-05-04 20:48 24.98727 -77.40376 1360 ft 169 kts 313°
2026-05-04 20:48 24.99570 -77.41317 1099 ft 171 kts 313°
2026-05-04 20:48 25.00398 -77.42239 953 ft 169 kts 312°
2026-05-04 20:48 25.01263 -77.43232 647 ft 185 kts 315°
2026-05-04 20:49 25.02149 -77.44215 359 ft 182 kts 318°
2026-05-04 20:49 25.03031 -77.45186 111 ft 180 kts 317°
2026-05-04 20:49 25.03806 -77.46049 29 ft 169 kts 316°
2026-05-04 20:49 25.04461 -77.46764 28 ft 90 kts 314°
2026-05-04 20:50 25.04733 -77.47067 29 ft 9 kts 327°
2026-05-04 20:50 25.04785 -77.47020 29 ft 9 kts 81°
2026-05-04 20:50 25.04794 -77.46967 27 ft 7 kts 77°
2026-05-04 20:50 25.04818 -77.46936 27 ft 3 kts 18°
2026-05-04 20:51 25.04843 -77.46942 26 ft 8 kts 341°
2026-05-04 20:51 25.04905 -77.46938 24 ft 8 kts 22°
2026-05-04 20:51 25.04953 -77.46910 26 ft 8 kts 43°
2026-05-04 20:51 25.04983 -77.46861 24 ft 2 kts 57°
2026-05-04 20:52 25.04995 -77.46847 26 ft 3 kts 39°
2026-05-04 20:52 25.05013 -77.46841 22 ft 3 kts
2026-05-04 20:52 25.05030 -77.46826 25 ft 4 kts 60°
2026-05-04 20:52 25.05038 -77.46798 25 ft 4 kts 73°
2026-05-04 20:53 25.05048 -77.46770 23 ft 4 kts 52°
2026-05-04 20:53 25.05068 -77.46759 21 ft 0 kts 25°